EUTELSAT 174A

Last updated on Thu Oct 30 2025 00:02:47 GMT+0000 (Coordinated Universal Time)

1 28924U 05052A 25302.54470410 .00000022 00000+0 00000+0 0 9996 2 28924 3.6310 79.3727 0006242 138.3421 190.5490 1.00270349 50011
UTC large
Height (km)
Speed (km/s)
/
Latitude / Longitude
Inclination (degrees)
Orbital Period (minutes)
Azimuth
Elevation
Range (km)
Doppler Factor

Next 0 passes for location: London (51.5072 / 0.1276)

Sorry there are no passes over London.